Temp
60 59 58 58 58 58 59 59 59 59 59 60 61 61 62 62 64 59 51 56 60 66 64 56 59 60 59 56 55 51 43 36 38 39 42 44 42 42 42 42 39 41 39 41 44
60 59 58 58 57 57 58 58 58 58 59 60 61 61 61 62 56 53 62 66 66 66 57 58 56 58 53 53 52 48 43 44 44 44 41 43 43 43 41 38 36 37 40 43 43
60 59 58 58 57 57 57 58 58 58 59 59 60 61 61 58 53 50 66 66 66 63 56 56 57 57 51 49 47 44 43 43 42 44 45 42 40 40 39 36 39 38 39 40 39
60 59 58 57 57 57 57 57 57 58 59 59 60 61 61 54 44 55 64 64 65 60 58 58 56 51 45 45 46 43 44 44 45 46 45 43 42 39 39 38 42 42 41 39 38
59 59 58 57 57 56 56 57 57 58 58 59 60 61 54 50 50 58 62 60 58 58 55 55 52 48 45 44 45 42 40 43 43 44 42 45 38 39 38 36 40 41 42 39 38
59 59 58 57 56 56 56 56 57 57 58 59 60 61 50 46 55 57 56 56 56 56 52 55 53 51 45 42 42 39 42 41 43 42 43 41 36 37 38 38 39 40 39 37 38
59 58 57 57 56 56 56 56 57 57 58 59 61 56 50 47 54 55 57 54 54 55 53 52 53 52 47 41 44 42 40 41 42 42 39 42 39 37 38 39 38 38 36 37 38
59 58 57 56 56 56 56 56 57 57 58 60 61 51 46 55 54 56 57 55 56 57 54 53 54 48 46 44 43 40 37 34 38 40 38 40 35 38 37 37 36 36 34 36 37
58 58 57 56 56 56 56 56 56 58 59 60 50 46 43 58 51 52 53 52 54 55 55 58 51 44 44 38 34 35 31 30 36 41 38 36 35 35 36 36 35 34 34 36 35
58 58 57 56 56 55 55 56 56 57 56 56 54 45 46 45 48 51 51 52 52 50 51 50 42 37 35 36 34 33 32 32 31 35 35 32 35 35 35 35 36 34 35 33 34
58 58 57 56 56 56 50 47 47 45 46 44 44 44 45 47 50 49 51 50 50 50 40 41 39 35 38 37 37 36 34 33 31 36 35 33 35 37 37 34 35 34 35 34 35
58 57 57 56 56 55 45 44 46 49 41 45 45 45 47 48 45 47 51 45 44 39 40 39 37 39 41 40 38 36 34 32 33 35 35 32 34 38 39 39 39 39 37 37 37
57 57 57 56 56 48 42 47 50 48 43 42 45 45 46 49 44 46 49 45 40 38 35 36 36 41 40 36 37 34 35 32 34 33 32 31 32 33 36 38 39 42 43 41 39
57 56 56 56 47 44 45 50 50 48 33 39 40 44 45 47 41 47 47 46 41 39 39 35 37 38 37 36 37 34 36 35 34 32 27 30 25 31 35 35 34 39 39 40 39
56 56 55 55 44 45 53 50 50 50 19 40 38 48 44 42 42 42 46 45 40 37 37 36 35 35 35 36 39 35 35 35 33 29 27 28 23 30 31 36 39 36 38 39 39
55 55 54 47 47 50 51 52 50 29 19 31 37 37 39 40 39 42 42 45 42 38 35 33 36 34 35 35 36 36 34 33 29 28 14 26 25 27 32 38 36 35 36 38 37
55 54 51 49 44 50 52 49 31 20 33 28 32 35 35 35 36 36 38 36 34 31 31 33 33 34 37 34 37 34 31 14 15 10 17 24 22 31 38 38 39 41 37 34 37
55 53 48 47 48 52 49 36 26 25 25 33 33 34 33 36 35 35 35 34 36 33 29 30 26 33 36 34 33 31 30 21 14 12 18 26 19 35 37 38 38 38 37 34 34
54 48 45 45 47 50 41 27 29 28 33 32 34 27 28 34 34 35 32 32 37 36 37 28 29 32 34 35 34 32 26 30 12 4 13 25 30 38 39 36 38 36 34 32 32
48 44 42 46 47 46 33 31 28 37 36 36 35 31 24 27 33 32 32 36 38 39 37 35 25 31 32 34 33 32 34 25 17 11 9 19 22 33 38 39 35 34 35 33 31
46 40 42 47 47 36 29 30 35 41 41 38 35 29 32 28 33 31 32 37 40 36 37 34 33 25 31 29 28 26 24 24 26 22 15 12 25 34 38 41 41 39 37 33 31
43 33 44 47 32 32 32 31 41 40 40 40 39 35 32 32 31 32 33 36 41 40 35 36 29 19 24 26 27 29 30 28 21 19 16 15 21 38 37 38 38 40 38 33 32
34 32 43 44 31 29 32 33 38 38 37 37 36 39 35 31 31 31 34 37 40 40 36 35 25 14 21 25 26 27 29 29 16 16 14 14 25 37 34 35 37 36 35 32 31
34 29 32 34 33 34 33 32 34 37 39 39 38 39 33 27 33 30 34 35 35 39 44 41 25 26 29 31 26 24 27 31 24 12 17 20 27 38 38 35 38 36 34 31 30
35 30 33 28 31 32 35 35 33 33 37 41 35 39 37 31 28 30 30 32 35 38 36 35 27 20 20 25 25 28 28 28 27 32 26 32 30 38 42 35 36 36 35 31 30
31 30 31 29 33 31 33 34 34 36 35 36 36 40 37 38 40 38 30 30 32 31 30 29 25 24 23 24 25 24 28 27 30 31 30 33 31 40 40 34 32 33 32 32 29
33 33 33 31 30 31 32 34 36 38 38 40 41 35 36 40 38 38 39 38 36 33 30 28 23 21 18 22 22 25 26 28 25 22 30 27 37 41 40 35 36 37 32 35 32
MSLP
1015.98 1016.01 1016.12 1016.07 1016.01 1015.94 1015.82 1015.75 1015.80 1015.78 1015.56 1015.18 1014.98 1014.73 1014.40 1014.12 1013.73 1013.72 1014.58 1014.93 1014.66 1014.12 1013.94 1013.70 1013.46 1013.58 1013.84 1015.11 1015.88 1016.54 1018.65 1020.76 1021.03 1021.42 1021.22 1021.91 1022.59 1023.42 1023.86 1024.23 1024.91 1025.39 1025.67 1025.76 1026.28
1015.77 1015.95 1016.01 1016.02 1016.06 1016.02 1015.97 1015.99 1015.90 1015.66 1015.51 1015.32 1015.02 1014.71 1014.42 1014.21 1014.02 1014.44 1014.82 1014.60 1014.32 1013.99 1014.00 1013.76 1014.01 1013.99 1015.21 1015.97 1016.67 1017.42 1018.85 1019.49 1019.70 1020.13 1020.86 1021.72 1022.32 1023.21 1023.91 1024.53 1025.14 1025.77 1026.11 1026.35 1026.60
1015.60 1015.71 1015.93 1016.08 1016.06 1016.04 1015.93 1015.86 1015.80 1015.68 1015.60 1015.37 1015.11 1014.70 1014.45 1014.28 1014.33 1014.61 1014.57 1014.39 1014.20 1014.01 1014.06 1014.01 1014.10 1014.39 1015.90 1016.70 1017.82 1018.35 1019.06 1019.31 1019.72 1019.93 1020.38 1021.67 1022.76 1023.29 1023.82 1024.77 1024.49 1025.18 1025.98 1026.49 1026.98
1015.49 1015.52 1015.73 1015.98 1016.04 1016.04 1015.89 1015.82 1015.71 1015.60 1015.48 1015.23 1015.03 1014.81 1014.37 1014.35 1014.89 1014.61 1014.47 1014.22 1014.04 1013.91 1014.04 1013.97 1014.32 1015.43 1016.80 1017.68 1018.27 1018.99 1019.62 1019.84 1020.08 1020.37 1020.96 1022.01 1022.86 1023.42 1023.75 1023.66 1023.74 1024.29 1025.49 1026.35 1027.08
1015.15 1015.43 1015.58 1015.71 1015.86 1016.06 1015.95 1015.81 1015.81 1015.67 1015.54 1015.22 1014.96 1014.65 1014.50 1014.58 1014.82 1014.58 1014.45 1014.16 1013.95 1014.00 1014.26 1014.43 1014.98 1016.03 1017.55 1018.33 1018.81 1019.43 1019.97 1020.39 1020.66 1020.80 1021.47 1021.98 1022.69 1023.19 1023.64 1023.81 1024.03 1024.74 1025.71 1026.55 1027.08
1014.89 1015.22 1015.43 1015.73 1015.79 1015.76 1015.90 1015.88 1015.80 1015.55 1015.27 1015.18 1014.99 1014.74 1014.65 1015.11 1014.96 1014.87 1014.62 1014.21 1014.25 1014.19 1014.49 1014.66 1015.31 1016.08 1017.95 1019.09 1019.54 1020.34 1020.47 1020.91 1021.18 1021.37 1021.80 1022.21 1023.03 1023.37 1023.61 1024.09 1024.67 1025.10 1025.74 1026.32 1026.70
1014.60 1015.02 1015.29 1015.54 1015.69 1015.62 1015.76 1015.92 1015.75 1015.58 1015.14 1015.10 1014.99 1014.89 1014.75 1015.05 1015.04 1014.98 1014.70 1014.58 1014.42 1014.27 1014.74 1015.16 1015.48 1016.17 1018.12 1019.68 1020.31 1020.45 1021.09 1021.20 1021.51 1021.67 1022.08 1022.32 1023.09 1022.96 1023.21 1024.08 1024.90 1025.43 1025.94 1026.47 1026.53
1014.17 1014.62 1014.97 1015.32 1015.58 1015.60 1015.66 1015.81 1015.68 1015.44 1015.23 1014.89 1014.99 1015.02 1014.93 1014.96 1014.98 1014.91 1014.89 1014.71 1014.53 1014.35 1014.74 1015.37 1015.62 1017.09 1018.56 1019.87 1020.43 1020.93 1021.37 1021.81 1021.57 1021.86 1022.46 1022.81 1022.29 1022.38 1023.37 1024.19 1024.97 1025.54 1025.97 1026.12 1026.11
1013.54 1014.14 1014.67 1014.98 1015.43 1015.64 1015.64 1015.51 1015.49 1015.26 1015.06 1014.95 1014.92 1015.25 1015.29 1015.13 1015.21 1015.23 1015.17 1015.16 1014.91 1015.01 1015.23 1015.53 1016.10 1018.31 1019.37 1020.27 1021.36 1021.89 1021.97 1022.09 1021.77 1021.79 1022.50 1023.06 1022.53 1022.98 1023.43 1024.16 1024.76 1025.11 1025.42 1025.53 1025.93
1012.90 1013.71 1014.26 1014.80 1015.09 1015.57 1015.62 1015.38 1015.28 1015.10 1015.06 1015.08 1015.29 1015.60 1015.69 1015.59 1015.60 1015.45 1015.34 1015.10 1015.13 1015.48 1015.85 1016.39 1017.77 1018.97 1019.97 1020.32 1020.94 1021.40 1021.91 1021.98 1021.90 1022.18 1022.80 1023.26 1022.35 1022.94 1023.55 1024.03 1023.93 1024.25 1024.52 1025.25 1025.47
1012.50 1013.19 1013.94 1014.51 1015.06 1015.31 1015.69 1015.54 1015.83 1015.76 1015.27 1015.16 1015.30 1015.46 1015.51 1015.62 1015.74 1015.80 1015.71 1015.43 1015.32 1015.83 1016.76 1017.46 1018.51 1018.99 1019.06 1019.45 1019.58 1020.05 1020.76 1021.30 1021.72 1021.98 1022.62 1022.88 1022.10 1022.16 1022.54 1023.19 1023.36 1023.67 1023.95 1024.18 1024.55
1011.93 1012.81 1013.63 1014.36 1014.99 1015.43 1015.66 1015.31 1014.74 1014.77 1015.22 1015.49 1015.61 1015.55 1015.51 1015.63 1015.73 1015.98 1015.85 1016.06 1016.02 1016.64 1017.20 1018.06 1018.37 1018.42 1018.73 1019.25 1019.63 1020.26 1020.83 1021.32 1021.63 1022.02 1022.60 1022.43 1021.22 1020.63 1020.57 1020.16 1020.39 1021.12 1022.03 1022.53 1023.32
1011.23 1012.39 1013.36 1014.27 1014.84 1015.79 1015.52 1014.77 1014.26 1014.52 1015.12 1015.62 1015.61 1015.62 1015.50 1015.60 1015.81 1015.85 1016.04 1016.19 1016.69 1017.26 1017.74 1018.23 1018.59 1018.63 1019.20 1019.64 1019.83 1020.30 1020.73 1021.41 1021.96 1022.43 1022.66 1022.57 1020.28 1019.06 1018.26 1018.44 1018.81 1019.40 1019.87 1020.79 1021.58
1010.28 1011.69 1012.94 1014.14 1015.78 1015.19 1015.26 1014.15 1014.18 1014.33 1015.79 1015.65 1015.75 1015.47 1015.67 1015.64 1016.12 1016.05 1016.00 1016.22 1017.06 1017.59 1018.20 1018.70 1018.91 1019.04 1019.34 1019.84 1020.13 1020.66 1020.78 1021.43 1022.40 1022.95 1023.35 1022.96 1020.66 1018.58 1017.64 1017.91 1017.94 1018.24 1018.52 1019.17 1020.38
1009.34 1010.90 1011.95 1013.01 1014.15 1014.62 1013.62 1013.94 1014.15 1014.41 1016.12 1015.83 1016.07 1016.17 1015.89 1016.14 1016.33 1016.55 1016.37 1016.25 1017.08 1018.02 1018.61 1018.93 1019.27 1019.54 1019.83 1019.93 1020.02 1021.26 1021.61 1022.39 1023.20 1023.96 1024.14 1023.65 1023.04 1017.81 1017.43 1017.13 1016.22 1016.55 1017.21 1018.38 1019.38
1008.65 1010.11 1011.60 1013.56 1013.83 1013.59 1013.52 1013.83 1014.52 1016.32 1015.82 1016.22 1016.28 1016.20 1016.50 1016.64 1016.66 1016.77 1016.75 1016.86 1017.61 1018.22 1018.90 1019.52 1019.66 1019.74 1020.34 1020.94 1020.83 1021.72 1022.65 1023.50 1024.60 1025.35 1025.47 1023.72 1023.17 1017.54 1016.70 1015.36 1015.18 1015.25 1016.21 1017.45 1018.78
1008.35 1009.49 1011.10 1012.45 1013.38 1013.15 1013.19 1014.32 1016.27 1016.36 1015.71 1016.53 1016.74 1016.66 1016.84 1017.23 1017.29 1016.96 1017.11 1017.46 1017.34 1018.49 1019.30 1019.99 1020.18 1020.29 1020.26 1021.36 1022.13 1022.18 1023.32 1025.18 1026.32 1027.03 1026.12 1024.51 1023.39 1016.98 1014.91 1014.36 1014.73 1015.02 1015.95 1017.07 1018.01
1008.20 1009.63 1011.62 1012.63 1012.93 1013.15 1013.29 1015.73 1016.49 1015.33 1015.62 1016.18 1016.64 1017.16 1017.47 1017.26 1017.56 1017.55 1017.45 1017.58 1017.42 1017.39 1018.85 1019.61 1020.59 1020.49 1020.57 1020.79 1021.58 1022.92 1023.49 1024.73 1026.35 1027.60 1026.54 1025.10 1021.57 1015.62 1013.56 1013.29 1013.76 1014.63 1015.61 1016.63 1017.85
1008.31 1010.36 1011.51 1012.94 1013.11 1013.30 1014.55 1016.60 1014.51 1014.32 1014.87 1015.60 1016.62 1017.22 1017.55 1017.45 1017.48 1017.76 1017.78 1017.17 1016.50 1016.58 1017.00 1018.53 1019.84 1020.66 1020.85 1020.91 1021.53 1022.97 1023.79 1024.30 1026.54 1028.48 1027.03 1023.30 1019.07 1015.32 1013.06 1013.10 1013.49 1014.60 1015.68 1016.52 1017.61
1008.53 1010.47 1011.97 1012.49 1013.06 1013.91 1016.31 1015.19 1014.44 1013.97 1013.86 1014.51 1015.00 1016.06 1016.80 1017.19 1017.54 1017.82 1017.41 1015.67 1015.39 1015.48 1015.77 1016.98 1019.52 1021.26 1021.47 1021.44 1021.78 1022.24 1023.09 1024.37 1025.89 1027.17 1026.04 1022.58 1020.24 1016.25 1013.80 1012.93 1013.21 1014.46 1015.13 1016.22 1017.31
1008.70 1010.62 1012.64 1012.84 1013.31 1014.95 1015.15 1014.17 1013.38 1013.14 1012.99 1013.31 1013.84 1015.28 1015.93 1016.41 1016.79 1017.02 1016.44 1015.25 1014.99 1015.66 1015.93 1016.75 1017.78 1021.64 1021.83 1021.60 1021.38 1022.40 1023.14 1023.87 1024.43 1024.99 1024.32 1022.43 1017.99 1014.36 1013.20 1012.78 1013.06 1013.70 1014.62 1015.85 1016.93
1008.96 1011.10 1012.34 1012.57 1014.19 1014.39 1013.19 1012.31 1011.89 1012.01 1012.46 1012.65 1013.06 1014.06 1014.85 1015.45 1016.21 1016.42 1015.51 1015.03 1014.62 1015.05 1016.25 1016.94 1018.12 1020.68 1021.15 1021.24 1021.30 1021.85 1021.55 1022.56 1023.45 1024.08 1023.67 1021.70 1016.99 1013.40 1012.97 1012.90 1013.08 1013.21 1014.13 1015.26 1016.62
1009.81 1011.66 1012.74 1012.14 1012.37 1012.65 1012.23 1011.84 1011.45 1011.36 1011.54 1012.24 1012.86 1012.89 1013.74 1014.53 1015.66 1015.40 1015.18 1014.83 1014.60 1014.92 1015.20 1016.31 1017.58 1020.25 1021.22 1021.72 1021.53 1021.45 1021.27 1021.17 1022.10 1022.51 1022.49 1020.89 1016.16 1013.17 1012.95 1012.94 1012.94 1013.69 1014.37 1015.18 1016.50
1010.00 1012.08 1013.37 1012.77 1011.91 1011.62 1011.53 1011.31 1011.39 1010.88 1010.78 1011.07 1011.70 1012.49 1013.22 1013.91 1014.64 1015.20 1015.26 1015.10 1014.98 1015.06 1015.26 1015.86 1017.07 1017.41 1017.78 1017.92 1018.29 1019.94 1019.30 1019.73 1020.46 1021.51 1020.24 1017.88 1015.18 1013.30 1012.88 1012.92 1012.77 1013.33 1014.27 1015.19 1016.34
1009.95 1010.67 1010.85 1012.02 1011.18 1011.18 1011.12 1010.47 1010.67 1010.36 1010.57 1010.69 1011.47 1011.11 1011.63 1013.44 1014.18 1014.45 1014.67 1015.58 1015.88 1016.03 1015.83 1016.69 1017.58 1017.97 1017.42 1017.58 1017.69 1017.39 1017.55 1018.10 1018.89 1017.64 1017.64 1015.49 1014.34 1012.86 1011.56 1012.27 1012.16 1012.79 1013.73 1014.96 1016.04
1010.19 1010.70 1011.23 1011.05 1010.80 1011.15 1010.59 1009.13 1009.12 1010.37 1010.12 1010.20 1010.11 1009.91 1011.52 1011.82 1011.49 1012.56 1014.12 1015.10 1015.95 1016.79 1017.02 1017.71 1018.09 1018.39 1018.02 1017.69 1017.62 1017.06 1016.06 1016.82 1017.26 1017.22 1016.57 1014.92 1012.77 1010.93 1010.89 1011.39 1011.97 1012.16 1013.27 1014.11 1014.77
1010.51 1011.13 1011.35 1010.72 1010.46 1010.45 1008.33 1008.03 1008.89 1009.48 1008.98 1009.05 1008.93 1010.72 1011.17 1010.09 1011.52 1012.50 1013.28 1013.68 1014.34 1016.15 1017.72 1018.32 1018.25 1018.72 1018.39 1017.87 1017.30 1015.36 1014.08 1014.64 1014.67 1014.62 1014.25 1013.50 1010.73 1010.42 1009.69 1010.26 1010.65 1011.30 1012.43 1012.74 1013.00
Wind_Speed
6 4 3 2 2 3 4 7 7 7 7 7 7 9 11 13 4 5 4 3 7 13 10 4 2 4 5 5 5 3 6 3 7 9 5 6 6 2 1 6 2 3 2 2 11
7 5 4 2 3 3 4 5 6 8 8 7 8 9 11 11 3 7 3 8 9 9 4 5 4 5 5 4 5 6 4 9 6 7 7 7 5 9 5 4 1 4 3 4 7
9 7 5 4 3 3 4 5 6 7 8 8 9 10 10 5 2 0 4 11 9 3 2 2 3 4 6 5 5 3 3 4 1 4 7 8 5 3 8 4 7 10 11 7 5
10 9 7 5 3 4 3 5 6 8 8 8 9 10 10 1 3 1 10 12 8 3 3 3 5 6 5 4 3 5 3 2 2 3 6 9 9 6 5 3 4 11 11 7 8
11 11 8 6 4 4 4 5 5 5 8 8 9 10 3 2 1 3 11 9 2 3 4 3 4 5 6 5 3 4 2 4 4 7 7 7 3 4 5 1 6 11 8 9 8
12 11 9 7 5 3 5 5 6 6 5 8 9 8 2 2 3 6 7 2 4 2 2 3 5 5 8 4 4 2 6 3 5 4 3 4 1 2 4 6 8 10 10 9 10
13 12 10 8 5 3 4 7 7 7 4 7 8 2 3 1 3 6 6 2 2 2 5 3 7 7 6 5 4 2 5 4 5 3 2 5 5 9 6 8 10 9 8 8 9
13 12 11 8 6 4 4 6 7 6 7 2 6 1 1 2 2 3 7 2 4 5 8 7 9 11 6 5 6 6 5 2 2 0 0 2 9 3 8 11 10 9 8 9 10
16 12 12 10 6 5 5 5 8 6 5 4 3 3 2 5 1 2 3 2 2 4 6 4 7 6 4 6 5 6 3 3 5 5 4 3 7 3 5 8 10 9 10 10 7
18 14 14 11 8 5 5 4 5 3 2 1 2 4 1 1 2 3 2 2 5 3 4 8 7 5 4 4 6 7 4 4 5 2 3 3 17 4 5 8 13 10 11 8 9
20 17 16 13 9 6 2 3 5 3 3 3 2 2 1 1 1 4 3 1 3 8 4 3 5 7 11 6 4 7 6 5 3 2 5 8 17 11 10 10 14 12 12 12 13
21 19 17 13 9 5 3 4 3 3 1 0 0 2 2 2 4 1 2 3 2 4 4 5 5 4 8 7 6 4 4 4 1 3 4 5 17 13 15 16 21 20 18 17 12
23 21 18 15 11 3 3 5 1 1 2 4 3 3 4 6 4 7 4 3 4 5 3 5 0 6 5 4 7 2 5 4 2 3 2 6 10 6 7 10 10 17 14 17 19
26 24 22 18 4 5 4 4 3 2 5 5 5 3 2 4 2 1 1 3 3 8 7 1 1 4 3 4 4 3 3 5 4 2 4 2 11 6 5 8 10 14 18 16 17
29 28 28 20 8 5 3 7 5 5 2 2 2 2 1 4 5 3 2 3 8 6 5 6 5 2 2 2 5 2 3 5 3 4 2 4 3 8 4 8 12 12 15 15 16
31 30 28 4 1 2 6 7 4 11 11 1 2 3 5 4 2 3 2 6 4 5 5 2 1 2 2 3 2 10 6 7 5 3 4 5 3 6 6 8 4 2 8 13 14
30 32 22 9 4 7 7 4 5 7 3 3 3 4 3 3 2 2 6 6 8 7 5 2 1 0 4 7 6 3 5 4 6 5 8 4 4 13 9 7 7 6 5 10 13
30 29 12 3 3 8 6 7 6 2 5 3 4 5 4 6 1 2 6 6 5 4 5 8 5 8 4 4 8 4 4 8 8 4 5 4 10 10 7 5 7 6 3 8 11
28 5 8 4 1 2 10 7 10 9 8 10 6 5 3 2 4 4 6 6 9 11 9 7 2 1 2 3 4 6 4 3 9 1 4 6 10 12 9 8 8 7 5 8 9
9 5 4 11 6 11 6 12 6 3 8 4 9 6 9 7 7 7 10 7 7 12 1 8 6 3 1 2 3 4 5 4 4 3 5 6 7 11 6 5 3 7 12 9 8
5 6 3 10 10 7 7 10 8 6 6 7 9 6 5 10 7 7 4 4 4 4 3 6 6 2 2 7 8 5 3 2 3 5 7 2 9 10 10 11 6 9 8 8 10
3 5 9 15 8 3 9 12 9 11 5 3 4 4 8 11 9 7 11 6 5 10 9 3 6 5 7 1 0 2 8 8 7 7 3 2 11 2 8 7 7 8 7 6 8
4 4 3 11 8 9 4 2 4 6 10 10 10 5 4 10 4 7 7 0 7 8 11 9 3 4 6 3 2 7 8 5 4 4 7 7 9 1 4 7 8 7 5 6 8
4 6 1 4 1 7 8 6 10 3 2 5 6 6 5 4 1 7 7 3 1 6 2 5 2 8 11 7 7 8 9 16 8 5 6 9 7 13 8 9 8 8 8 7 8
1 3 4 12 15 3 7 9 14 11 5 10 2 16 13 8 3 5 2 3 1 3 4 4 6 3 3 1 4 6 6 18 20 25 12 10 16 22 21 12 11 10 5 7 9
2 3 0 1 7 12 7 15 18 14 10 11 15 19 6 14 19 17 7 2 1 6 4 3 1 1 4 3 4 8 9 12 20 16 16 23 22 18 8 5 6 10 9 10 12
2 2 1 5 8 11 20 16 12 10 10 5 23 7 14 23 5 4 2 9 12 12 6 3 5 3 7 4 5 16 15 16 8 6 13 17 23 9 16 13 16 13 11 14 15
Wind_Direction
213 219 231 263 317 340 357 356 348 338 336 342 345 349 350 347 355 33 54 271 307 314 316 263 35 34 49 70 44 132 73 167 197 151 195 171 131 101 140 117 74 10 108 146 129
214 220 233 250 299 321 337 340 340 345 337 333 339 346 348 347 68 58 206 321 320 328 26 57 62 39 51 44 25 73 115 208 186 175 165 161 146 151 137 125 120 66 41 102 123
214 214 224 248 267 299 324 338 340 336 329 332 334 342 341 331 94 282 334 333 324 329 115 95 106 71 69 54 3 17 164 154 178 173 138 132 115 127 128 225 202 185 176 161 135
219 216 212 236 263 289 310 326 335 334 328 337 338 334 331 348 169 253 342 332 321 158 151 98 51 62 74 87 5 82 32 356 63 117 110 145 126 170 204 199 264 167 155 142 150
214 222 210 214 238 281 305 316 317 326 327 336 341 342 340 62 186 345 338 334 349 129 61 93 73 110 102 97 66 77 115 41 63 90 85 108 129 194 223 3 123 127 143 149 157
217 218 205 218 224 255 299 306 312 317 337 338 338 329 49 181 339 337 331 7 37 80 77 47 148 124 96 64 63 56 76 72 30 79 77 111 152 29 194 137 132 150 167 168 168
211 218 205 211 228 249 291 303 310 313 333 340 342 359 93 200 348 323 357 10 341 142 102 43 126 75 131 92 162 79 70 46 18 8 102 155 253 228 170 160 166 181 172 176 190
193 208 197 206 226 246 269 297 305 309 313 0 341 356 186 311 270 23 334 23 13 58 98 108 94 97 75 128 36 61 50 81 279 111 337 58 264 273 166 158 194 195 191 196 205
181 185 191 195 214 241 273 299 302 303 309 331 81 45 274 322 91 319 36 68 32 52 59 92 67 95 77 96 53 16 198 197 307 190 153 167 273 5 161 183 205 205 205 209 200
175 179 181 191 191 230 273 285 295 338 18 54 39 67 51 231 343 339 326 94 100 88 51 46 55 81 59 106 204 185 201 221 231 207 117 271 262 263 204 208 220 211 215 207 205
177 173 177 180 190 197 303 99 44 347 39 197 159 112 151 186 319 12 350 54 86 58 131 10 96 190 195 179 147 139 154 176 233 189 153 245 269 260 215 219 231 227 219 211 213
173 170 170 174 179 156 112 152 200 160 185 251 153 88 127 190 112 322 22 105 120 145 125 48 220 197 145 148 119 123 130 208 191 148 156 280 270 250 217 221 212 211 216 211 203
169 166 160 164 151 99 197 214 117 280 117 206 195 186 191 152 166 180 144 140 113 122 178 156 229 118 119 145 132 143 155 187 174 146 174 299 278 253 254 238 215 220 218 211 201
165 160 151 141 129 162 237 219 148 117 56 239 207 245 108 141 192 90 81 132 52 172 142 153 42 145 125 178 129 183 156 126 135 120 238 316 281 292 237 262 229 223 216 205 196
162 159 151 156 139 176 214 143 135 60 355 331 127 328 101 170 130 333 314 62 151 141 131 222 156 141 156 226 164 172 125 112 94 88 26 301 309 264 41 290 257 218 221 208 193
163 158 149 113 156 190 126 115 55 51 248 109 101 143 112 6 36 123 86 50 137 97 42 94 239 76 100 39 42 149 77 56 55 54 5 245 195 269 184 213 273 212 206 196 185
164 156 152 133 177 163 140 64 63 169 313 232 174 158 109 137 86 131 158 168 156 122 189 61 177 319 134 82 358 61 85 352 359 12 224 321 244 259 265 225 230 240 191 188 184
164 151 118 80 168 172 87 56 200 228 196 161 110 101 187 158 152 150 134 193 235 96 124 153 281 173 174 158 177 196 171 162 199 190 256 22 245 254 228 242 231 250 233 173 177
148 111 122 139 135 290 116 184 213 189 165 143 82 100 227 228 148 147 210 213 204 185 177 148 202 64 68 115 113 186 204 155 100 18 63 232 287 285 265 245 225 211 186 193 184
138 111 120 144 117 116 134 208 219 200 132 140 171 145 179 185 158 193 175 207 209 188 184 201 91 347 5 136 73 164 159 96 351 168 250 280 280 245 302 271 176 211 221 200 180
116 108 128 125 119 135 189 208 209 206 164 154 191 134 188 169 186 200 211 282 209 156 113 153 115 298 139 213 177 135 224 31 139 163 181 216 255 222 233 227 213 230 225 195 189
139 124 171 145 135 231 206 177 191 182 155 203 116 122 172 165 179 212 202 232 142 146 173 216 108 152 197 220 144 270 190 172 142 232 258 129 269 268 256 271 243 239 216 188 177
88 96 169 188 178 206 204 152 202 151 175 178 190 189 165 171 192 191 192 225 166 166 163 191 231 70 358 358 36 208 208 168 123 95 199 151 257 253 275 279 259 252 239 190 168
118 120 359 230 137 216 180 191 208 233 217 130 152 119 130 104 296 193 214 208 228 195 120 90 132 172 198 187 132 194 201 196 152 131 202 223 277 283 269 256 256 244 231 197 182
24 163 159 194 223 144 184 173 199 205 198 179 263 216 183 188 134 212 158 131 71 324 77 142 219 165 264 181 178 201 188 192 203 219 200 217 227 250 252 233 242 228 195 180 188
137 122 130 341 176 188 189 211 209 191 163 206 233 219 228 217 212 218 117 95 225 23 61 358 245 59 299 335 239 259 211 181 217 240 261 270 266 244 270 236 253 228 193 210 205
79 81 251 180 184 186 214 219 210 160 229 212 217 135 200 224 114 65 128 154 160 152 154 177 141 76 267 340 320 271 186 190 189 190 208 235 240 267 261 233 238 245 199 219 217